020  
ASUS45 KBOU 201610  
RWRCO  
 
WEATHER ROUNDUP FOR COLORADO  
NATIONAL WEATHER SERVICE DENVER/BOULDER CO  
900 AM MST WED FEB 20 2019  
 
NOTE: "FAIR" INDICATES FEW OR NO CLOUDS BELOW 12000 FEET WITH NO  
SIGNIFICANT WEATHER AND/OR S TO VISIBILITY
.  
 
COZ001>005-013-030-031-201700-   
..NORTHWEST COLORADO
 
 
 
CITY SKY/WX TMP DP RH WIND PRES REMARKS
 
CRAIG PTSUNNY 13 1 59 SW18 29.71R WCI -4  
HAYDEN PTSUNNY 8 1 73 SE7 29.71R WCI -3  
MEEKER CLOUDY 8 2 76 CALM 29.74R  
RANGELY CLOUDY 4 -1 81 E3 29.79S  
RABBIT EARS PA CLOUDY N/A N/A N/A W14 29.43R FOG  
STEAMBOAT SPGS CLOUDY 4 0 82 CALM 29.68R  
WALDEN CLOUDY 7 -2 66 S14G22 29.56R WCI -10  

 
 
COZ006>008-011-201700-   
..WEST CENTRAL VALLEYS
 
 
 
CITY SKY/WX TMP DP RH WIND PRES REMARKS
 
GRAND JUNCTION CLOUDY 16 13 88 CALM 29.85R  
MONTROSE CLOUDY 17 5 59 CALM 29.84R  
EAGLE FAIR 10 2 69 E7 29.75R WCI -1  
RIFLE FAIR 15 8 73 SE5 29.81R WCI 8  
DELTA CLOUDY 22 12 64 E3 29.86R  
NUCLA PTSUNNY 19 9 63 SE3 29.85S  

 
 
COZ017>023-064>068-201700-   
..SOUTHWEST COLORADO
 
 
 
CITY SKY/WX TMP DP RH WIND PRES REMARKS
 
DURANGO LGT SNOW 3 0 87 CALM 29.83R FOG  
CORTEZ CLOUDY 17 10 74 NE7 29.84S WCI 8  
PAGOSA SPRINGS CLOUDY N/A N/A N/A CALM 29.80R  
TELLURIDE CLOUDY 7 -4 61 CALM 29.69S  
WOLF CREEK PAS CLOUDY -8 -11 84 S24G33 29.56R WCI -34  

 
 
COZ009-010-012-014-032>034-037-058>063-201700-   
..CENTRAL COLORADO
 
 
 
CITY SKY/WX TMP DP RH WIND PRES REMARKS
 
ASPEN FAIR 8 0 69 CALM 29.66R  
BUENA VISTA FAIR 12 -10 35 W16G29 29.59R WCI -4  
COPPER MTN CLOUDY -4 -9 77 MISG 29.40R HAZE  
BERTHOUD PASS CLOUDY -13 -24 58 MISG 29.21R  
COTTONWOOD PAS FAIR 7 -15 36 W23G36 29.48R WCI -14  
GUNNISON FAIR -1 -7 75 NE3 29.72R  
GRANBY CLOUDY 4 -3 71 NW3 29.61S  
KREMMLING CLOUDY 12 0 57 SW14 29.66R WCI -3  
LEADVILLE FAIR 1 -12 54 NW10 29.50S WCI -15  
MONARCH PASS CLOUDY -8 -13 77 W48G58 29.51R WCI -42  
SALIDA FAIR 17 -3 40 W17G28 29.70R WCI 2  
SUNLIGHT FAIR N/A N/A N/A SW13G23 29.56R  
WILKERSON PASS FAIR -2 -11 65 W15G33 29.36R WCI -22  

 
 
COZ069>075-201700-   
..SAN LUIS VALLEY/SANGRE DE CRISTO MOUNTAINS
 
 
 
CITY SKY/WX TMP DP RH WIND PRES REMARKS
 
ALAMOSA FAIR 12 4 70 SE5 29.71R WCI 4  
DEL NORTE FAIR 11 -5 49 W9 29.70R WCI -2  
LA VETA PASS NOT AVBL  
SAGUACHE FAIR 10 -4 52 CALM 29.70R  

 
 
COZ035-036-038>040-201700-   
..NORTHERN COLORADO FRONT RANGE
 
 
 
CITY SKY/WX TMP DP RH WIND PRES REMARKS
 
DENVER INTL AP FAIR 24 1 36 W10G21 29.59R WCI 14  
AURORA MOSUNNY 22 0 37 W5 29.60R WCI 16  
FRONT RANGE AP MOSUNNY 27 3 36 W16 29.60R WCI 14  
ERIE MUNI ARPT FAIR 24 8 49 CALM 29.65S  
BOULDER MUN AP FAIR 25 0 33 E7 29.57S WCI 17  
CENTENNIAL FAIR 21 0 39 S6 29.58R WCI 13  
BROOMFIELD MOSUNNY 25 -8 24 SW17 29.58R WCI 11  
FORT COLLINS FAIR 15 13 91 E8 29.60S WCI 4  
LONGMONT FAIR 28 6 40 SE3 29.61R  

 
 
COZ041-046-047-076>085-087-088-201700-   
..PIKES PEAK/PALMER DIVIDE AND SOUTHERN FOOTHILLS
 
 
 
CITY SKY/WX TMP DP RH WIND PRES REMARKS
 
COLO. SPRINGS FAIR 16 8 71 E6 29.60R WCI 7  
A. F. ACADEMY FAIR 17 -3 41 SE5 29.56R WCI 10  
SCHRIEVER AFB NOT AVBL  
CHEYENNE MTN FAIR 16 -1 48 NW5 29.51R WCI 8  
ELLICOTT N/A N/A N/A N/A CALM 29.59  
FALCON FAIR 20 -4 34 NW10 29.58R WCI 9  
FORT CARSON MOSUNNY 12 10 88 N10 29.59S WCI -1  
LIMON FAIR 9 4 80 VRB6 29.63S WCI -1  
MONUMENT HILL FAIR 12 -4 48 SW9 29.57R WCI 0  
CANON CITY FAIR 25 5 42 NW18 29.63R WCI 11  
WALSENBURG NOT AVBL  
TRINIDAD FAIR 23 7 50 NW3 29.64S  

 
 
COZ042>045-048>051-090-091-201700-   
..NORTHEAST COLORADO
 
 
 
CITY SKY/WX TMP DP RH WIND PRES REMARKS
 
GREELEY ARPT LGT SNOW 16 14 93 VRB3 29.64S FOG  
AKRON FAIR 15 12 88 SW10 29.62R WCI 2  
BURLINGTON FAIR 16 9 74 SW5 29.67S WCI 9  
WRAY FAIR 21 12 68 W17 29.67S WCI 7  
YUMA FAIR 18 9 68 W12 29.65R WCI 5  
STERLING FAIR 21 10 63 W14 29.63S WCI 8  
HOLYOKE FAIR 19 9 63 W14 29.64R WCI 6  
FORT MORGAN LGT SNOW 15 12 90 W3 29.66R  

 
 
COZ086-089-092>099-201700-   
..SOUTHEAST COLORADO
 
 
 
CITY SKY/WX TMP DP RH WIND PRES REMARKS
 
PUEBLO FAIR 15 11 83 SE8 29.67F WCI 4  
LA JUNTA FAIR 18 14 84 CALM 29.72R  
LAMAR FAIR 16 13 88 SW5 29.73S WCI 9  
SPRINGFIELD N/A 26 16 65 NW3 29.71S  

 
 
 
CLICK HERE TO GO TO PREVIOUS BULLETINS.

The Nexlab CO Page Main Text Page